Weather History for Grinnell, IA

Change the Weather History Date:

Monday, November 18, 2013

  Actual Average (KMIW) Record (KMIW)
Temperature  
Mean Temperature 36 °F 35 °F  
Max Temperature 43 °F 45 °F 73 °F (1999)
Min Temperature 29 °F 25 °F 5 °F (2014)
Degree Days  
Heating Degree Days 29 30  
Month to date heating degree days 459  
Since 1 July heating degree days 1092  
Cooling Degree Days 0 0  
Month to date cooling degree days 0  
Year to date cooling degree days 728  
Moisture  
Dew Point 31 °F    
Average Humidity 81    
Maximum Humidity 93    
Minimum Humidity 62    
Precipitation  
Precipitation 0.00 in 0.07 in 0.76 in (2004)
Month to date precipitation 1.72  
Sea Level Pressure  
Sea Level Pressure 30.15 in    
Wind  
Wind Speed 12 mph (WNW)    
Max Wind Speed 21 mph    
Max Gust Speed 29 mph    
Visibility 10 miles    
Events      
T = Trace of Precipitation, MM = Missing Value Source: NWS Daily Summary

Daily Weather History Graph

Daily Weather History Graph

Search for Another Location

Airport:

Trip Planner

Search our weather history database for the weather conditions in past years. The results will help you decide how hot, cold, wet, or windy it might be!

Date:

Astronomy

Nov. 18, 2013 Rise Set
Actual Time 7:04 AM CST 4:47 PM CST
Civil Twilight 6:33 AM CST 5:18 PM CST
Nautical Twilight 6:00 AM CST 5:51 PM CST
Astronomical Twilight 5:27 AM CST 6:24 PM CST
Moon 5:50 PM CST (11/18) 7:53 AM CST (11/18)
Length of Visible Light 10h 44m
Length of Day
9h 43m
Full, 99% of the Moon is Illuminated
Nov 18
Full
Nov 25
Last Quarter
Dec 2
New
Dec 9
First Quarter
Dec 17
Full

Hourly Weather History & Observations

Time (CST) Temp. Windchill Dew Point Humidity Pressure Visibility Wind Dir Wind Speed Gust Speed Precip Events Conditions
12:15 AM 40.1 °F 32.4 °F 34.7 °F 81% 29.94 in 10.0 mi West 13.8 mph - N/A   Clear
12:35 AM 39.4 °F 31.8 °F 34.2 °F 82% 29.94 in 10.0 mi West 12.7 mph - N/A   Clear
12:55 AM 39.2 °F 32.0 °F 34.2 °F 82% 29.94 in 10.0 mi West 11.5 mph - N/A   Clear
1:15 AM 38.8 °F 31.2 °F 34.3 °F 84% 29.95 in 10.0 mi WSW 12.7 mph - N/A   Clear
1:35 AM 38.5 °F 29.9 °F 34.7 °F 86% 29.95 in 10.0 mi West 15.0 mph - N/A   Clear
1:55 AM 38.7 °F 30.1 °F 34.3 °F 84% 29.95 in 10.0 mi West 15.0 mph - N/A   Clear
2:15 AM 38.3 °F 29.7 °F 34.0 °F 84% 29.97 in 10.0 mi West 15.0 mph 19.6 mph N/A   Clear
2:35 AM 37.9 °F 29.6 °F 33.8 °F 85% 29.97 in 10.0 mi West 13.8 mph - N/A   Clear
2:55 AM 37.8 °F 28.3 °F 33.8 °F 86% 29.98 in 10.0 mi West 17.3 mph 23.0 mph N/A   Clear
3:15 AM 37.6 °F 28.1 °F 33.3 °F 84% 29.98 in 10.0 mi West 17.3 mph - N/A   Clear
3:35 AM 37.0 °F 27.7 °F 32.9 °F 85% 29.99 in 10.0 mi West 16.1 mph - N/A   Clear
3:55 AM 36.5 °F 26.7 °F 32.9 °F 87% 30.00 in 10.0 mi West 17.3 mph 23.0 mph N/A   Clear
4:15 AM 36.1 °F 25.9 °F 32.5 °F 87% 30.00 in 10.0 mi West 18.4 mph 24.2 mph N/A   Clear
4:35 AM 35.6 °F 25.9 °F 32.0 °F 87% 30.00 in 10.0 mi WNW 16.1 mph - N/A   Clear
4:55 AM 34.9 °F 25.7 °F 32.0 °F 89% 30.01 in 10.0 mi West 13.8 mph - N/A   Clear
5:15 AM 34.3 °F 24.2 °F 32.0 °F 91% 30.03 in 10.0 mi WNW 16.1 mph - N/A   Clear
5:35 AM 34.2 °F 24.8 °F 31.5 °F 90% 30.04 in 10.0 mi WNW 13.8 mph 18.4 mph N/A   Clear
5:55 AM 33.6 °F 24.6 °F 31.1 °F 90% 30.04 in 10.0 mi WNW 12.7 mph - N/A   Clear
6:15 AM 33.1 °F 23.9 °F 30.9 °F 92% 30.04 in 10.0 mi WNW 12.7 mph 18.4 mph N/A   Clear
6:35 AM 32.9 °F 24.1 °F 30.9 °F 92% 30.06 in 10.0 mi West 11.5 mph - N/A   Clear
6:55 AM 32.5 °F 24.2 °F 30.7 °F 93% 30.06 in 10.0 mi West 10.4 mph - N/A   Clear
7:15 AM 32.4 °F 24.6 °F 30.6 °F 93% 30.08 in 10.0 mi West 9.2 mph - N/A   Clear
7:35 AM 32.5 °F 23.7 °F 30.6 °F 92% 30.09 in 10.0 mi West 11.5 mph - N/A   Clear
7:55 AM 32.9 °F 23.7 °F 30.6 °F 91% 30.10 in 10.0 mi West 12.7 mph 18.4 mph N/A   Clear
8:15 AM 33.4 °F 23.5 °F 30.7 °F 90% 30.11 in 10.0 mi West 15.0 mph 18.4 mph N/A   Clear
8:35 AM 34.3 °F 24.6 °F 31.1 °F 88% 30.12 in 10.0 mi West 15.0 mph 20.7 mph N/A   Clear
8:55 AM 34.9 °F 24.9 °F 31.1 °F 86% 30.13 in 10.0 mi West 16.1 mph - N/A   Clear
9:15 AM 35.6 °F 24.8 °F 31.3 °F 84% 30.15 in 10.0 mi WNW 19.6 mph 23.0 mph N/A   Scattered Clouds
9:35 AM 35.6 °F 24.5 °F 30.6 °F 82% 30.16 in 10.0 mi WNW 20.7 mph 26.5 mph N/A   Scattered Clouds
9:55 AM 36.5 °F 26.0 °F 31.1 °F 81% 30.17 in 10.0 mi WNW 19.6 mph 28.8 mph N/A   Mostly Cloudy
10:15 AM 37.0 °F 27.4 °F 31.6 °F 81% 30.19 in 10.0 mi WNW 17.3 mph 23.0 mph N/A   Mostly Cloudy
10:35 AM 37.8 °F 28.0 °F 31.8 °F 79% 30.19 in 10.0 mi West 18.4 mph - N/A   Mostly Cloudy
10:55 AM 38.5 °F 28.6 °F 32.0 °F 78% 30.20 in 10.0 mi WNW 19.6 mph 23.0 mph N/A   Mostly Cloudy
11:15 AM 37.4 °F 27.8 °F 30.9 °F 77% 30.20 in 10.0 mi West 17.3 mph - N/A   Scattered Clouds
11:35 AM 38.7 °F 29.5 °F 31.1 °F 74% 30.20 in 10.0 mi West 17.3 mph - N/A   Scattered Clouds
11:55 AM 39.2 °F 30.2 °F 31.6 °F 74% 30.20 in 10.0 mi West 17.3 mph 23.0 mph N/A   Scattered Clouds
12:15 PM 40.1 °F 32.4 °F 31.8 °F 72% 30.20 in 10.0 mi WNW 13.8 mph 21.9 mph N/A   Clear
12:35 PM 40.8 °F 32.9 °F 31.8 °F 70% 30.20 in 10.0 mi WNW 15.0 mph - N/A   Clear
12:55 PM 41.9 °F 34.0 °F 32.0 °F 68% 30.20 in 10.0 mi WNW 16.1 mph 23.0 mph N/A   Clear
1:15 PM 41.4 °F 32.1 °F 31.1 °F 67% 30.20 in 10.0 mi NW 20.7 mph - N/A   Clear
1:35 PM 42.3 °F 34.4 °F 31.1 °F 65% 30.20 in 10.0 mi WNW 16.1 mph 23.0 mph N/A   Clear
1:55 PM 42.8 °F 35.1 °F 31.8 °F 65% 30.20 in 10.0 mi NW 16.1 mph - N/A   Clear
2:15 PM 43.0 °F 35.4 °F 30.7 °F 62% 30.21 in 10.0 mi NW 16.1 mph - N/A   Clear
2:35 PM 42.8 °F 35.8 °F 30.4 °F 62% 30.21 in 10.0 mi WNW 13.8 mph 19.6 mph N/A   Clear
2:55 PM 42.8 °F 36.2 °F 30.9 °F 63% 30.21 in 10.0 mi WNW 12.7 mph - N/A   Clear
3:15 PM 42.8 °F 35.8 °F 30.9 °F 63% 30.21 in 10.0 mi WNW 13.8 mph - N/A   Clear
3:35 PM 42.4 °F 37.0 °F 31.3 °F 65% 30.22 in 10.0 mi NW 9.2 mph - N/A   Clear
3:55 PM 41.9 °F 35.9 °F 31.3 °F 66% 30.22 in 10.0 mi NW 10.4 mph - N/A   Clear
4:15 PM 40.8 °F 35.6 °F 30.7 °F 67% 30.22 in 10.0 mi WNW 8.1 mph - N/A   Clear
4:35 PM 38.8 °F 33.8 °F 30.6 °F 72% 30.23 in 10.0 mi NW 6.9 mph - N/A   Clear
4:55 PM 37.2 °F 33.6 °F 30.6 °F 77% 30.23 in 10.0 mi WNW 4.6 mph - N/A   Clear
5:15 PM 36.7 °F 34.1 °F 30.2 °F 77% 30.23 in 10.0 mi WNW 3.5 mph - N/A   Clear
5:35 PM 35.8 °F - 30.2 °F 80% 30.23 in 10.0 mi Calm Calm - N/A   Clear
5:55 PM 35.6 °F - 30.2 °F 81% 30.24 in 10.0 mi Calm Calm - N/A   Clear
6:15 PM 35.2 °F - 29.8 °F 81% 30.24 in 10.0 mi Calm Calm - N/A   Clear
6:35 PM 35.6 °F - 30.0 °F 80% 30.25 in 10.0 mi Calm Calm - N/A   Clear
6:55 PM 36.0 °F - 30.0 °F 79% 30.25 in 10.0 mi Calm Calm - N/A   Clear
7:15 PM 35.8 °F - 30.2 °F 80% 30.25 in 10.0 mi Calm Calm - N/A   Clear
7:35 PM 35.6 °F - 30.2 °F 81% 30.25 in 10.0 mi Calm Calm - N/A   Clear
7:55 PM 34.5 °F - 29.1 °F 81% 30.25 in 10.0 mi Calm Calm - N/A   Clear
8:15 PM 33.8 °F - 28.9 °F 82% 30.25 in 10.0 mi Calm Calm - N/A   Clear
8:35 PM 33.1 °F - 29.3 °F 86% 30.26 in 10.0 mi Calm Calm - N/A   Clear
8:55 PM 31.5 °F - 28.6 °F 89% 30.26 in 10.0 mi Calm Calm - N/A   Clear
9:15 PM 32.4 °F 29.1 °F 29.1 °F 88% 30.26 in 10.0 mi WSW 3.5 mph - N/A   Clear
9:35 PM 32.7 °F 28.3 °F 28.9 °F 86% 30.27 in 10.0 mi SW 4.6 mph - N/A   Clear
9:55 PM 32.2 °F 27.7 °F 29.3 °F 89% 30.27 in 10.0 mi SW 4.6 mph - N/A   Clear
10:15 PM 32.9 °F 29.8 °F 29.1 °F 86% 30.27 in 10.0 mi SW 3.5 mph - N/A   Clear
10:35 PM 31.3 °F - 28.2 °F 88% 30.27 in 10.0 mi Calm Calm - N/A   Clear
10:55 PM 33.1 °F - 29.7 °F 87% 30.28 in 10.0 mi Calm Calm - N/A   Clear
11:15 PM 32.0 °F - 28.9 °F 88% 30.28 in 10.0 mi Calm Calm - N/A   Clear
11:35 PM 29.5 °F - 27.1 °F 91% 30.28 in 10.0 mi Calm Calm - N/A   Clear
11:55 PM 30.7 °F 27.3 °F 27.5 °F 88% 30.27 in 10.0 mi East 3.5 mph - N/A   Clear